Flag for U.S.A. Weather past 2 weeks in Spokane, Washington, U.S.A.

Now
65 °F

Mostly cloudy.


Feels Like: 65 °F
Forecast: 55 / 66 °F
Wind: 15 mph from Southwest

Location: Felts Field

Current Time: Jun 2, 2015 at 2:38:02 PM

Latest Report: Jun 2, 2015 at 1:53 PM


Visibility: 10 mi

Pressure: 29.92 "Hg

Humidity: 49%

Dew point: 45 °F

Location of SpokaneLocation

Historic Weather in Spokane — Graph

°F

Spokane temperature yesterday

Maximum temperature yesterday: 81 °F (at 4:53 PM)
Minimum temperature yesterday: 59 °F (at 10:53 PM)
Average temperature yesterday: 69 °F

Past Weeks' High & Low Weather Summary

 TemperatureHumidityPressure
High85 °F (May 30, 4:53 PM)96% (May 27, 5:00 AM)30.08 "Hg (May 27, 5:00 AM)
Low48 °F (May 27, 5:00 AM)15% (May 23, 3:53 PM)29.70 "Hg (Jun 1, 4:53 PM)
Average66 °F55%29.90 "Hg
* Reported May 18 12:53 PM — Jun 2 12:53 PM, Spokane, Weather by CustomWeather, © 2015

Note: Actual official high and low records may vary slightly from our data, if they occured in-between our weather recording intervals... More about our weather records

Advertising

Spokane weather history for previous 24 hours

 ConditionsComfort  
Time TempWeatherWind HumidityBarometerVisibility
12:53 PM
Tue, Jun 2
64 °FOvercast.14 mph50%29.93 "Hg10 mi
11:53 AM64 °FMore clouds than sun.14 mph50%29.93 "Hg10 mi
10:53 AM62 °FPartly sunny.13 mph58%29.91 "Hg10 mi
9:53 AM59 °FPartly sunny.14 mph67%29.91 "Hg10 mi
8:53 AM58 °FOvercast.12 mph70%29.91 "Hg10 mi
7:53 AM57 °FPartly sunny.12 mph72%29.89 "Hg10 mi
6:53 AM57 °FPartly sunny.6 mph72%29.88 "Hg10 mi
5:53 AM56 °FPartly cloudy.12 mph75%29.86 "Hg10 mi
4:53 AM57 °FMostly cloudy.9 mph72%29.84 "Hg10 mi
3:53 AM58 °FPassing clouds.6 mph72%29.83 "Hg10 mi
2:53 AM60 °FPassing clouds.10 mph72%29.83 "Hg10 mi
1:53 AM59 °FLight rain. Mostly cloudy.3 mph90%29.82 "Hg10 mi
12:53 AM59 °FMostly cloudy.8 mph90%29.82 "Hg10 mi
11:53 PM
Mon, Jun 1
59 °FRain. Overcast.5 mph90%29.84 "Hg7 mi
10:53 PM59 °FRain. Fog.7 mph90%29.85 "Hg6 mi
9:53 PM60 °FLight rain. Overcast.9 mph86%29.83 "Hg9 mi
8:53 PM64 °FThundershowers. Overcast.7 mph75%29.76 "Hg10 mi
7:53 PM70 °FThundershowers. Overcast.21 mph55%29.73 "Hg8 mi
6:53 PM78 °FThundershowers. Partly sunny.13 mph40%29.70 "Hg10 mi
5:53 PM79 °FScattered clouds.No wind38%29.70 "Hg10 mi
4:53 PM81 °FScattered clouds.6 mph35%29.70 "Hg10 mi
3:53 PM80 °FScattered clouds.5 mph36%29.72 "Hg10 mi
2:53 PM77 °FPassing clouds.6 mph42%29.74 "Hg10 mi
Weather by CustomWeather, © 2015

See weather overviewHow to use our weather pages